Powrót do katalogu

STARLINK-35580

AktywnyŁącznośćVLEO
NORAD 66155·PAYLOAD·🇺🇸 United States

Wystrzelony Oct 25, 2025 z Cape Canaveral Space Force Station

Loading…

Następne Przeloty (najbliższe 24 godziny)

TLE

ŚwieżeSource: CelesTrak SupGP

Epoka: Sep 14, 2026, 22:59 UTC

1 66155C 25240K   26257.95812500  .00035675  00000+0  10540-2 0  2572
2 66155  53.1582 259.3137 0001314  88.8865  62.2820 15.34372758    17

Śledź STARLINK-35580 w czasie rzeczywistym z AllMySat

Download on the App Store